Time,TemperatureF,DewpointF,PressureIn,WindDirection,WindDirectionDegrees,WindSpeedMPH,WindSpeedGustMPH,Humidity,HourlyPrecipIn,Conditions,Clouds,dailyrainin,SoftwareType,DateUTC
2013-08-09 00:00:00,66.1,65.5,30.10,East,81,0.0,1.0,98,0.00,,,0.00,WeatherCatV1.20B785,2013-08-09 04:00:00,
2013-08-09 00:01:00,66.1,65.5,30.10,East,80,0.0,0.0,98,0.00,,,0.00,WeatherCatV1.20B785,2013-08-09 04:01:00,
2013-08-09 00:06:00,66.1,65.5,30.10,SE,125,0.0,3.0,98,0.00,,,0.00,WeatherCatV1.20B785,2013-08-09 04:06:00,
2013-08-09 00:11:00,66.1,65.5,30.10,NNW,335,0.0,3.0,98,0.00,,,0.00,WeatherCatV1.20B785,2013-08-09 04:11:00,
2013-08-09 00:16:00,66.1,65.5,30.10,NW,313,0.0,2.0,98,0.00,,,0.00,WeatherCatV1.20B785,2013-08-09 04:16:00,
2013-08-09 00:21:00,66.1,65.5,30.10,East,96,2.0,5.0,98,0.00,,,0.00,WeatherCatV1.20B785,2013-08-09 04:21:00,
2013-08-09 00:26:00,66.0,65.4,30.10,ESE,110,0.0,4.0,98,0.00,,,0.00,WeatherCatV1.20B785,2013-08-09 04:26:00,
2013-08-09 00:31:00,66.0,65.4,30.10,SSW,197,6.0,7.0,98,0.00,,,0.00,WeatherCatV1.20B785,2013-08-09 04:31:00,
2013-08-09 00:36:00,66.0,65.4,30.10,East,94,0.0,3.0,98,0.00,,,0.00,WeatherCatV1.20B785,2013-08-09 04:36:00,
2013-08-09 00:41:00,66.0,65.4,30.10,SSW,200,0.0,0.0,98,0.00,,,0.00,WeatherCatV1.20B785,2013-08-09 04:41:00,
2013-08-09 00:46:00,66.0,65.7,30.10,SSE,147,0.0,4.0,99,0.00,,,0.00,WeatherCatV1.20B785,2013-08-09 04:46:00,
2013-08-09 00:51:00,66.0,65.7,30.10,North,10,0.0,0.0,99,0.00,,,0.00,WeatherCatV1.20B785,2013-08-09 04:51:00,
2013-08-09 00:56:00,66.0,65.7,30.10,East,95,0.0,1.0,99,0.00,,,0.00,WeatherCatV1.20B785,2013-08-09 04:56:00,
2013-08-09 01:01:00,66.0,65.7,30.10,East,98,0.0,0.0,99,0.00,,,0.00,WeatherCatV1.20B785,2013-08-09 05:01:00,
2013-08-09 01:06:00,66.0,65.7,30.10,East,98,0.0,0.0,99,0.00,,,0.00,WeatherCatV1.20B785,2013-08-09 05:06:00,
2013-08-09 01:11:00,66.0,65.7,30.10,NE,53,0.0,0.0,99,0.00,,,0.00,WeatherCatV1.20B785,2013-08-09 05:11:00,
2013-08-09 01:16:00,65.9,65.6,30.09,ENE,71,0.0,1.0,99,0.00,,,0.00,WeatherCatV1.20B785,2013-08-09 05:16:00,
2013-08-09 01:21:00,65.9,65.6,30.09,SSW,194,0.0,2.0,99,0.00,,,0.00,WeatherCatV1.20B785,2013-08-09 05:21:00,
2013-08-09 01:26:00,65.9,65.6,30.10,ESE,117,0.0,1.0,99,0.00,,,0.00,WeatherCatV1.20B785,2013-08-09 05:26:00,
2013-08-09 01:31:00,65.8,65.5,30.09,SSW,192,0.0,0.0,99,0.00,,,0.00,WeatherCatV1.20B785,2013-08-09 05:31:00,
2013-08-09 01:36:00,65.7,65.4,30.09,NE,44,0.0,1.0,99,0.00,,,0.00,WeatherCatV1.20B785,2013-08-09 05:36:00,
2013-08-09 01:41:00,65.7,65.4,30.09,East,100,0.0,2.0,99,0.00,,,0.00,WeatherCatV1.20B785,2013-08-09 05:41:00,
2013-08-09 01:46:00,65.7,65.4,30.08,East,100,0.0,0.0,99,0.00,,,0.00,WeatherCatV1.20B785,2013-08-09 05:46:00,
2013-08-09 01:51:00,65.6,65.3,30.08,East,99,0.0,0.0,99,0.00,,,0.00,WeatherCatV1.20B785,2013-08-09 05:51:00,
2013-08-09 01:56:00,65.6,65.3,30.08,East,100,0.0,0.0,99,0.00,,,0.00,WeatherCatV1.20B785,2013-08-09 05:56:00,
2013-08-09 02:01:00,65.4,65.1,30.08,East,99,0.0,0.0,99,0.00,,,0.00,WeatherCatV1.20B785,2013-08-09 06:01:00,
2013-08-09 02:06:00,65.3,65.0,30.08,East,99,0.0,0.0,99,0.00,,,0.00,WeatherCatV1.20B785,2013-08-09 06:06:00,
2013-08-09 02:11:00,65.2,64.9,30.08,East,101,0.0,0.0,99,0.00,,,0.00,WeatherCatV1.20B785,2013-08-09 06:11:00,
2013-08-09 02:16:00,65.2,64.9,30.09,SSE,155,0.0,0.0,99,0.00,,,0.00,WeatherCatV1.20B785,2013-08-09 06:16:00,
2013-08-09 02:21:00,65.1,64.8,30.08,SE,128,0.0,4.0,99,0.00,,,0.00,WeatherCatV1.20B785,2013-08-09 06:21:00,
2013-08-09 02:26:00,65.1,64.8,30.08,SE,136,0.0,3.0,99,0.00,,,0.00,WeatherCatV1.20B785,2013-08-09 06:26:00,
2013-08-09 02:31:00,65.0,64.7,30.09,SE,144,0.0,0.0,99,0.00,,,0.00,WeatherCatV1.20B785,2013-08-09 06:31:00,
2013-08-09 02:36:00,65.0,64.7,30.09,SE,127,0.0,1.0,99,0.00,,,0.00,WeatherCatV1.20B785,2013-08-09 06:36:00,
2013-08-09 02:41:00,65.0,64.7,30.09,NNE,15,0.0,0.0,99,0.00,,,0.00,WeatherCatV1.20B785,2013-08-09 06:41:00,
2013-08-09 02:46:00,65.0,64.7,30.09,SE,129,0.0,0.0,99,0.00,,,0.00,WeatherCatV1.20B785,2013-08-09 06:46:00,
2013-08-09 02:51:00,64.9,64.6,30.08,East,80,0.0,1.0,99,0.00,,,0.00,WeatherCatV1.20B785,2013-08-09 06:51:00,
2013-08-09 02:56:00,65.0,64.7,30.08,South,169,0.0,2.0,99,0.00,,,0.00,WeatherCatV1.20B785,2013-08-09 06:56:00,
2013-08-09 03:01:00,64.9,64.6,30.08,South,190,0.0,6.0,99,0.00,,,0.00,WeatherCatV1.20B785,2013-08-09 07:01:00,
2013-08-09 03:06:00,65.0,64.7,30.08,ENE,71,0.0,1.0,99,0.00,,,0.00,WeatherCatV1.20B785,2013-08-09 07:06:00,
2013-08-09 03:11:00,65.0,64.7,30.08,ENE,74,0.0,1.0,99,0.00,,,0.00,WeatherCatV1.20B785,2013-08-09 07:11:00,
2013-08-09 03:16:00,65.0,64.7,30.08,NNE,32,2.0,3.0,99,0.00,,,0.00,WeatherCatV1.20B785,2013-08-09 07:16:00,
2013-08-09 03:21:00,65.0,64.7,30.08,NNW,345,0.0,2.0,99,0.00,,,0.00,WeatherCatV1.20B785,2013-08-09 07:21:00,
2013-08-09 03:26:00,65.1,64.8,30.08,NNW,333,0.0,0.0,99,0.00,,,0.00,WeatherCatV1.20B785,2013-08-09 07:26:00,
2013-08-09 03:31:00,65.2,64.9,30.08,ESE,119,0.0,0.0,99,0.00,,,0.00,WeatherCatV1.20B785,2013-08-09 07:31:00,
2013-08-09 03:36:00,65.2,64.9,30.08,NW,315,0.0,4.0,99,0.00,,,0.00,WeatherCatV1.20B785,2013-08-09 07:36:00,
2013-08-09 03:41:00,65.2,64.9,30.08,NNW,341,0.0,2.0,99,0.00,,,0.00,WeatherCatV1.20B785,2013-08-09 07:41:00,
2013-08-09 03:46:00,65.2,64.9,30.08,North,5,0.0,3.0,99,0.00,,,0.00,WeatherCatV1.20B785,2013-08-09 07:46:00,
2013-08-09 03:51:00,65.2,64.9,30.08,North,0,0.0,1.0,99,0.00,,,0.00,WeatherCatV1.20B785,2013-08-09 07:51:00,
2013-08-09 03:56:00,65.2,64.9,30.08,ESE,102,0.0,3.0,99,0.00,,,0.00,WeatherCatV1.20B785,2013-08-09 07:56:00,
2013-08-09 04:01:00,65.2,64.9,30.08,ESE,123,0.0,5.0,99,0.00,,,0.00,WeatherCatV1.20B785,2013-08-09 08:01:00,
2013-08-09 04:06:00,65.3,65.0,30.08,ESE,110,0.0,2.0,99,0.00,,,0.00,WeatherCatV1.20B785,2013-08-09 08:06:00,
2013-08-09 04:11:00,65.3,65.0,30.08,SE,126,0.0,5.0,99,0.00,,,0.00,WeatherCatV1.20B785,2013-08-09 08:11:00,
2013-08-09 04:16:00,65.3,65.0,30.08,East,80,0.0,2.0,99,0.00,,,0.00,WeatherCatV1.20B785,2013-08-09 08:16:00,
2013-08-09 04:21:00,65.3,65.0,30.08,SE,136,1.0,3.0,99,0.00,,,0.00,WeatherCatV1.20B785,2013-08-09 08:21:00,
2013-08-09 04:26:00,65.3,65.0,30.08,ESE,121,0.0,2.0,99,0.00,,,0.00,WeatherCatV1.20B785,2013-08-09 08:26:00,
2013-08-09 04:31:00,65.3,65.0,30.08,NE,56,0.0,3.0,99,0.00,,,0.00,WeatherCatV1.20B785,2013-08-09 08:31:00,
2013-08-09 04:36:00,65.3,65.0,30.08,SSE,159,2.0,3.0,99,0.00,,,0.00,WeatherCatV1.20B785,2013-08-09 08:36:00,
2013-08-09 04:41:00,65.3,65.0,30.08,SSE,160,0.0,1.0,99,0.00,,,0.00,WeatherCatV1.20B785,2013-08-09 08:41:00,
2013-08-09 04:46:00,65.3,65.0,30.08,North,5,0.0,3.0,99,0.00,,,0.00,WeatherCatV1.20B785,2013-08-09 08:46:00,
2013-08-09 04:51:00,65.3,65.0,30.09,North,0,0.0,0.0,99,0.00,,,0.00,WeatherCatV1.20B785,2013-08-09 08:51:00,
2013-08-09 04:56:00,65.3,65.0,30.09,North,5,0.0,1.0,99,0.00,,,0.00,WeatherCatV1.20B785,2013-08-09 08:56:00,
2013-08-09 05:01:00,65.2,64.9,30.09,ESE,112,0.0,0.0,99,0.00,,,0.00,WeatherCatV1.20B785,2013-08-09 09:01:00,
2013-08-09 05:06:00,65.2,64.9,30.09,ESE,112,0.0,0.0,99,0.00,,,0.00,WeatherCatV1.20B785,2013-08-09 09:06:00,
2013-08-09 05:11:00,65.0,64.7,30.09,ESE,107,0.0,1.0,99,0.00,,,0.00,WeatherCatV1.20B785,2013-08-09 09:11:00,
2013-08-09 05:16:00,65.0,64.7,30.09,ESE,108,0.0,3.0,99,0.00,,,0.00,WeatherCatV1.20B785,2013-08-09 09:16:00,
2013-08-09 05:21:00,64.9,64.6,30.09,ESE,108,0.0,0.0,99,0.00,,,0.00,WeatherCatV1.20B785,2013-08-09 09:21:00,
2013-08-09 05:26:00,64.9,64.6,30.09,ESE,108,0.0,0.0,99,0.00,,,0.00,WeatherCatV1.20B785,2013-08-09 09:26:00,
2013-08-09 05:31:00,64.8,64.5,30.09,East,99,0.0,1.0,99,0.00,,,0.00,WeatherCatV1.20B785,2013-08-09 09:31:00,
2013-08-09 05:36:00,64.8,64.5,30.09,East,99,0.0,0.0,99,0.00,,,0.00,WeatherCatV1.20B785,2013-08-09 09:36:00,
2013-08-09 05:41:00,64.8,64.5,30.09,SW,236,0.0,3.0,99,0.00,,,0.00,WeatherCatV1.20B785,2013-08-09 09:41:00,
2013-08-09 05:46:00,64.8,64.5,30.09,SW,236,0.0,1.0,99,0.00,,,0.00,WeatherCatV1.20B785,2013-08-09 09:46:00,
2013-08-09 05:51:00,64.8,64.5,30.09,East,84,0.0,0.0,99,0.00,,,0.00,WeatherCatV1.20B785,2013-08-09 09:51:00,
2013-08-09 05:56:00,64.8,64.5,30.09,SE,141,0.0,0.0,99,0.00,,,0.00,WeatherCatV1.20B785,2013-08-09 09:56:00,
2013-08-09 06:01:00,64.9,64.6,30.09,SE,141,0.0,0.0,99,0.00,,,0.00,WeatherCatV1.20B785,2013-08-09 10:01:00,
2013-08-09 06:06:00,64.9,64.6,30.09,SE,141,0.0,0.0,99,0.00,,,0.00,WeatherCatV1.20B785,2013-08-09 10:06:00,
2013-08-09 06:11:00,64.9,64.6,30.09,SE,140,0.0,0.0,99,0.00,,,0.00,WeatherCatV1.20B785,2013-08-09 10:11:00,
2013-08-09 06:16:00,65.0,64.4,30.09,East,88,0.0,1.0,98,0.00,,,0.00,WeatherCatV1.20B785,2013-08-09 10:16:00,
2013-08-09 06:21:00,65.0,64.4,30.10,East,88,0.0,0.0,98,0.00,,,0.00,WeatherCatV1.20B785,2013-08-09 10:21:00,
2013-08-09 06:26:00,65.1,64.5,30.10,East,88,0.0,0.0,98,0.00,,,0.00,WeatherCatV1.20B785,2013-08-09 10:26:00,
2013-08-09 06:31:00,65.1,64.5,30.10,East,88,0.0,0.0,98,0.00,,,0.00,WeatherCatV1.20B785,2013-08-09 10:31:00,
2013-08-09 06:36:00,65.1,64.2,30.10,East,88,0.0,0.0,97,0.00,,,0.00,WeatherCatV1.20B785,2013-08-09 10:36:00,
2013-08-09 06:41:00,65.1,64.2,30.10,East,88,0.0,1.0,97,0.00,,,0.00,WeatherCatV1.20B785,2013-08-09 10:41:00,
2013-08-09 06:46:00,65.1,64.2,30.10,East,88,0.0,0.0,97,0.00,,,0.00,WeatherCatV1.20B785,2013-08-09 10:46:00,
2013-08-09 06:51:00,65.1,64.2,30.10,East,89,0.0,0.0,97,0.00,,,0.00,WeatherCatV1.20B785,2013-08-09 10:51:00,
2013-08-09 06:56:00,65.2,64.0,30.11,SSE,165,0.0,3.0,96,0.00,,,0.00,WeatherCatV1.20B785,2013-08-09 10:56:00,
2013-08-09 07:01:00,65.3,64.1,30.10,SSW,199,0.0,1.0,96,0.00,,,0.00,WeatherCatV1.20B785,2013-08-09 11:01:00,
2013-08-09 07:06:00,65.6,64.4,30.11,SSW,198,0.0,0.0,96,0.00,,,0.00,WeatherCatV1.20B785,2013-08-09 11:06:00,
2013-08-09 07:11:00,65.7,64.2,30.11,West,265,0.0,5.0,95,0.00,,,0.00,WeatherCatV1.20B785,2013-08-09 11:11:00,
2013-08-09 07:16:00,66.0,64.2,30.11,WNW,300,0.0,0.0,94,0.00,,,0.00,WeatherCatV1.20B785,2013-08-09 11:16:00,
2013-08-09 07:21:00,66.2,64.4,30.11,WNW,283,2.0,2.0,94,0.00,,,0.00,WeatherCatV1.20B785,2013-08-09 11:21:00,
2013-08-09 07:26:00,66.4,64.3,30.11,SW,234,0.0,1.0,93,0.00,,,0.00,WeatherCatV1.20B785,2013-08-09 11:26:00,
2013-08-09 07:31:00,66.7,64.6,30.11,SE,140,0.0,3.0,93,0.00,,,0.00,WeatherCatV1.20B785,2013-08-09 11:31:00,
2013-08-09 07:36:00,66.8,64.4,30.11,West,276,0.0,0.0,92,0.00,,,0.00,WeatherCatV1.20B785,2013-08-09 11:36:00,
2013-08-09 07:41:00,66.9,64.8,30.11,ESE,122,0.0,0.0,93,0.00,,,0.00,WeatherCatV1.20B785,2013-08-09 11:41:00,
2013-08-09 07:46:00,66.8,64.7,30.11,ESE,123,0.0,0.0,93,0.00,,,0.00,WeatherCatV1.20B785,2013-08-09 11:46:00,
2013-08-09 07:51:00,66.7,64.6,30.12,ESE,122,0.0,1.0,93,0.00,,,0.00,WeatherCatV1.20B785,2013-08-09 11:51:00,
2013-08-09 07:56:00,66.7,64.6,30.12,ESE,122,0.0,0.0,93,0.00,,,0.00,WeatherCatV1.20B785,2013-08-09 11:56:00,
2013-08-09 08:01:00,66.8,64.7,30.12,SE,125,0.0,0.0,93,0.00,,,0.00,WeatherCatV1.20B785,2013-08-09 12:01:00,
2013-08-09 08:06:00,66.8,64.7,30.11,SE,125,0.0,0.0,93,0.00,,,0.00,WeatherCatV1.20B785,2013-08-09 12:06:00,
2013-08-09 08:11:00,67.0,64.9,30.12,SE,125,0.0,0.0,93,0.00,,,0.00,WeatherCatV1.20B785,2013-08-09 12:11:00,
2013-08-09 08:16:00,67.2,65.1,30.12,SSE,163,0.0,2.0,93,0.00,,,0.00,WeatherCatV1.20B785,2013-08-09 12:16:00,
2013-08-09 08:21:00,67.3,65.2,30.11,WNW,285,0.0,1.0,93,0.00,,,0.00,WeatherCatV1.20B785,2013-08-09 12:21:00,
2013-08-09 08:26:00,67.5,65.4,30.12,WNW,286,0.0,0.0,93,0.00,,,0.00,WeatherCatV1.20B785,2013-08-09 12:26:00,
2013-08-09 08:31:00,67.6,65.5,30.12,WNW,286,0.0,0.0,93,0.00,,,0.00,WeatherCatV1.20B785,2013-08-09 12:31:00,
2013-08-09 08:36:00,67.7,65.6,30.13,WNW,286,0.0,0.0,93,0.00,,,0.00,WeatherCatV1.20B785,2013-08-09 12:36:00,
2013-08-09 08:41:00,67.8,65.7,30.13,WNW,287,0.0,1.0,93,0.00,,,0.00,WeatherCatV1.20B785,2013-08-09 12:41:00,
2013-08-09 08:46:00,68.0,66.2,30.13,WNW,287,0.0,1.0,94,0.00,,,0.00,WeatherCatV1.20B785,2013-08-09 12:46:00,
2013-08-09 08:51:00,68.2,66.4,30.13,WNW,287,0.0,0.0,94,0.00,,,0.00,WeatherCatV1.20B785,2013-08-09 12:51:00,
2013-08-09 08:56:00,68.3,66.5,30.13,WNW,287,0.0,0.0,94,0.00,,,0.00,WeatherCatV1.20B785,2013-08-09 12:56:00,
2013-08-09 09:01:00,68.4,66.3,30.13,WNW,287,0.0,0.0,93,0.00,,,0.00,WeatherCatV1.20B785,2013-08-09 13:01:00,
2013-08-09 09:06:00,68.5,66.7,30.13,WNW,287,0.0,1.0,94,0.00,,,0.00,WeatherCatV1.20B785,2013-08-09 13:06:00,
2013-08-09 09:11:00,68.8,67.0,30.13,ESE,103,1.0,1.0,94,0.00,,,0.00,WeatherCatV1.20B785,2013-08-09 13:11:00,
2013-08-09 09:16:00,69.1,67.3,30.13,ESE,111,0.0,1.0,94,0.00,,,0.00,WeatherCatV1.20B785,2013-08-09 13:16:00,
2013-08-09 09:21:00,69.3,67.5,30.14,NNW,338,0.0,0.0,94,0.00,,,0.00,WeatherCatV1.20B785,2013-08-09 13:21:00,
2013-08-09 09:26:00,69.5,68.0,30.14,NE,45,0.0,1.0,95,0.00,,,0.00,WeatherCatV1.20B785,2013-08-09 13:26:00,
2013-08-09 09:31:00,69.6,67.8,30.13,NNE,13,0.0,0.0,94,0.00,,,0.00,WeatherCatV1.20B785,2013-08-09 13:31:00,
2013-08-09 09:36:00,69.6,67.5,30.14,NNE,13,0.0,0.0,93,0.00,,,0.00,WeatherCatV1.20B785,2013-08-09 13:36:00,
2013-08-09 09:41:00,69.6,67.5,30.14,East,95,0.0,1.0,93,0.00,,,0.00,WeatherCatV1.20B785,2013-08-09 13:41:00,
2013-08-09 09:46:00,69.5,67.4,30.14,ESE,107,0.0,1.0,93,0.00,,,0.00,WeatherCatV1.20B785,2013-08-09 13:46:00,
2013-08-09 09:51:00,69.5,67.4,30.14,ESE,106,0.0,0.0,93,0.00,,,0.00,WeatherCatV1.20B785,2013-08-09 13:51:00,
2013-08-09 09:56:00,69.5,67.4,30.14,SW,234,0.0,4.0,93,0.00,,,0.00,WeatherCatV1.20B785,2013-08-09 13:56:00,
2013-08-09 10:01:00,69.7,67.3,30.14,SW,234,0.0,0.0,92,0.00,,,0.00,WeatherCatV1.20B785,2013-08-09 14:01:00,
2013-08-09 10:06:00,69.9,67.8,30.14,SW,234,0.0,0.0,93,0.00,,,0.00,WeatherCatV1.20B785,2013-08-09 14:06:00,
2013-08-09 10:11:00,70.0,67.6,30.15,SSE,155,0.0,0.0,92,0.00,,,0.00,WeatherCatV1.20B785,2013-08-09 14:11:00,
2013-08-09 10:16:00,70.2,67.4,30.15,WNW,283,0.0,1.0,91,0.00,,,0.00,WeatherCatV1.20B785,2013-08-09 14:16:00,
2013-08-09 10:21:00,70.6,67.5,30.15,WNW,299,0.0,0.0,90,0.00,,,0.00,WeatherCatV1.20B785,2013-08-09 14:21:00,
2013-08-09 10:26:00,70.9,67.2,30.15,WNW,290,0.0,3.0,88,0.00,,,0.00,WeatherCatV1.20B785,2013-08-09 14:26:00,
2013-08-09 10:31:00,71.4,67.7,30.15,NNE,19,0.0,0.0,88,0.00,,,0.00,WeatherCatV1.20B785,2013-08-09 14:31:00,
2013-08-09 10:36:00,71.8,67.4,30.15,ESE,103,0.0,6.0,86,0.00,,,0.00,WeatherCatV1.20B785,2013-08-09 14:36:00,
2013-08-09 10:41:00,72.4,67.6,30.15,NW,308,3.0,12.0,85,0.00,,,0.00,WeatherCatV1.20B785,2013-08-09 14:41:00,
2013-08-09 10:46:00,73.3,68.5,30.15,NNE,17,0.0,0.0,85,0.00,,,0.00,WeatherCatV1.20B785,2013-08-09 14:46:00,
2013-08-09 10:51:00,73.8,68.3,30.15,NW,313,0.0,0.0,83,0.00,,,0.00,WeatherCatV1.20B785,2013-08-09 14:51:00,
2013-08-09 10:56:00,73.8,68.3,30.15,WNW,287,0.0,1.0,83,0.00,,,0.00,WeatherCatV1.20B785,2013-08-09 14:56:00,
2013-08-09 11:01:00,73.1,68.0,30.15,WSW,242,0.0,0.0,84,0.00,,,0.00,WeatherCatV1.20B785,2013-08-09 15:01:00,
2013-08-09 11:06:00,72.7,67.6,30.15,ESE,121,0.0,1.0,84,0.00,,,0.00,WeatherCatV1.20B785,2013-08-09 15:06:00,
2013-08-09 11:11:00,72.4,67.6,30.15,SE,124,0.0,0.0,85,0.00,,,0.00,WeatherCatV1.20B785,2013-08-09 15:11:00,
2013-08-09 11:16:00,72.3,67.2,30.15,WSW,239,0.0,1.0,84,0.00,,,0.00,WeatherCatV1.20B785,2013-08-09 15:16:00,
2013-08-09 11:21:00,72.3,67.9,30.15,ENE,61,0.0,2.0,86,0.00,,,0.00,WeatherCatV1.20B785,2013-08-09 15:21:00,
2013-08-09 11:26:00,72.6,67.8,30.15,North,11,0.0,1.0,85,0.00,,,0.00,WeatherCatV1.20B785,2013-08-09 15:26:00,
2013-08-09 11:31:00,73.2,68.8,30.15,North,11,3.0,3.0,86,0.00,,,0.00,WeatherCatV1.20B785,2013-08-09 15:31:00,
2013-08-09 11:36:00,73.9,69.1,30.15,NNE,28,0.0,4.0,85,0.00,,,0.00,WeatherCatV1.20B785,2013-08-09 15:36:00,
2013-08-09 11:39:00,74.2,69.4,30.15,NNE,28,0.0,0.0,85,0.00,,,0.00,WeatherCatV1.20B785,2013-08-09 15:39:00,
2013-08-09 11:44:00,74.8,68.9,30.15,NE,44,0.0,0.0,82,0.00,,,0.00,WeatherCatV1.20B785,2013-08-09 15:44:00,
2013-08-09 11:49:00,75.6,69.7,30.15,NNE,18,0.0,3.0,82,0.00,,,0.00,WeatherCatV1.20B785,2013-08-09 15:49:00,
2013-08-09 11:54:00,76.2,69.6,30.14,NE,42,0.0,0.0,80,0.00,,,0.00,WeatherCatV1.20B785,2013-08-09 15:54:00,
2013-08-09 11:59:00,76.4,69.0,30.14,NE,51,0.0,0.0,78,0.00,,,0.00,WeatherCatV1.20B785,2013-08-09 15:59:00,
2013-08-09 12:04:00,76.6,69.2,30.14,South,187,0.0,4.0,78,0.00,,,0.00,WeatherCatV1.20B785,2013-08-09 16:04:00,
2013-08-09 12:09:00,77.1,69.7,30.14,NE,52,0.0,6.0,78,0.00,,,0.00,WeatherCatV1.20B785,2013-08-09 16:09:00,
2013-08-09 12:14:00,78.0,69.8,30.14,NW,306,0.0,3.0,76,0.00,,,0.00,WeatherCatV1.20B785,2013-08-09 16:14:00,
2013-08-09 12:19:00,78.2,70.0,30.14,NW,307,0.0,1.0,76,0.00,,,0.00,WeatherCatV1.20B785,2013-08-09 16:19:00,
2013-08-09 12:24:00,78.4,70.6,30.14,North,0,0.0,0.0,77,0.00,,,0.00,WeatherCatV1.20B785,2013-08-09 16:24:00,
2013-08-09 12:29:00,78.7,70.9,30.14,North,5,0.0,0.0,77,0.00,,,0.00,WeatherCatV1.20B785,2013-08-09 16:29:00,
2013-08-09 12:34:00,79.1,70.1,30.14,North,5,0.0,1.0,74,0.00,,,0.00,WeatherCatV1.20B785,2013-08-09 16:34:00,
2013-08-09 12:39:00,79.6,70.6,30.13,WSW,251,0.0,4.0,74,0.00,,,0.00,WeatherCatV1.20B785,2013-08-09 16:39:00,
2013-08-09 12:44:00,80.3,69.2,30.13,ENE,67,0.0,3.0,69,0.00,,,0.00,WeatherCatV1.20B785,2013-08-09 16:44:00,
2013-08-09 12:49:00,80.5,71.0,30.13,SE,138,0.0,3.0,73,0.00,,,0.00,WeatherCatV1.20B785,2013-08-09 16:49:00,
2013-08-09 12:54:00,80.3,70.0,30.13,ESE,110,0.0,0.0,71,0.00,,,0.00,WeatherCatV1.20B785,2013-08-09 16:54:00,
2013-08-09 12:59:00,79.9,69.2,30.12,SSW,200,0.0,3.0,70,0.00,,,0.00,WeatherCatV1.20B785,2013-08-09 16:59:00,
2013-08-09 13:04:00,79.6,68.9,30.12,NW,320,0.0,1.0,70,0.00,,,0.00,WeatherCatV1.20B785,2013-08-09 17:04:00,
2013-08-09 13:09:00,78.8,69.4,30.12,North,350,1.0,4.0,73,0.00,,,0.00,WeatherCatV1.20B785,2013-08-09 17:09:00,
2013-08-09 13:14:00,78.0,69.8,30.12,NNW,346,0.0,1.0,76,0.00,,,0.00,WeatherCatV1.20B785,2013-08-09 17:14:00,
2013-08-09 13:19:00,77.6,69.4,30.12,NNW,346,0.0,0.0,76,0.00,,,0.00,WeatherCatV1.20B785,2013-08-09 17:19:00,
2013-08-09 13:24:00,76.9,69.9,30.12,NNW,346,0.0,0.0,79,0.00,,,0.00,WeatherCatV1.20B785,2013-08-09 17:24:00,
2013-08-09 13:29:00,75.7,69.1,30.12,NNW,346,0.0,0.0,80,0.00,,,0.00,WeatherCatV1.20B785,2013-08-09 17:29:00,
2013-08-09 13:34:00,75.2,69.3,30.12,NNW,346,0.0,0.0,82,0.00,,,0.00,WeatherCatV1.20B785,2013-08-09 17:34:00,
2013-08-09 13:39:00,74.9,69.4,30.12,NNW,346,0.0,0.0,83,0.00,,,0.00,WeatherCatV1.20B785,2013-08-09 17:39:00,
2013-08-09 13:44:00,74.7,69.2,30.12,NNW,346,0.0,2.0,83,0.00,,,0.00,WeatherCatV1.20B785,2013-08-09 17:44:00,
2013-08-09 13:49:00,74.6,69.1,30.12,NNW,346,0.0,0.0,83,0.00,,,0.00,WeatherCatV1.20B785,2013-08-09 17:49:00,
2013-08-09 13:54:00,74.5,69.7,30.12,NNW,347,0.0,0.0,85,0.00,,,0.00,WeatherCatV1.20B785,2013-08-09 17:54:00,
2013-08-09 13:59:00,74.4,69.6,30.11,NNW,347,0.0,1.0,85,0.00,,,0.00,WeatherCatV1.20B785,2013-08-09 17:59:00,
2013-08-09 14:04:00,74.9,70.1,30.11,NNW,346,0.0,0.0,85,0.00,,,0.00,WeatherCatV1.20B785,2013-08-09 18:04:00,
2013-08-09 14:09:00,75.6,70.1,30.11,NNW,347,0.0,2.0,83,0.00,,,0.00,WeatherCatV1.20B785,2013-08-09 18:09:00,
2013-08-09 14:14:00,76.5,71.3,30.11,NNW,347,0.0,1.0,84,0.00,,,0.00,WeatherCatV1.20B785,2013-08-09 18:14:00,
2013-08-09 14:19:00,77.1,70.8,30.11,NNW,346,0.0,0.0,81,0.00,,,0.00,WeatherCatV1.20B785,2013-08-09 18:19:00,
2013-08-09 14:24:00,77.4,71.8,30.10,NNW,348,0.0,0.0,83,0.00,,,0.00,WeatherCatV1.20B785,2013-08-09 18:24:00,
2013-08-09 14:29:00,77.3,71.7,30.10,NNW,348,0.0,0.0,83,0.00,,,0.00,WeatherCatV1.20B785,2013-08-09 18:29:00,
2013-08-09 14:34:00,77.2,71.6,30.10,NNW,341,0.0,0.0,83,0.00,,,0.00,WeatherCatV1.20B785,2013-08-09 18:34:00,
2013-08-09 14:39:00,76.9,71.0,30.10,NNW,341,0.0,1.0,82,0.00,,,0.00,WeatherCatV1.20B785,2013-08-09 18:39:00,
2013-08-09 14:44:00,76.5,71.3,30.10,NNW,341,0.0,0.0,84,0.00,,,0.00,WeatherCatV1.20B785,2013-08-09 18:44:00,
2013-08-09 14:49:00,76.1,70.9,30.11,NNW,341,0.0,0.0,84,0.00,,,0.00,WeatherCatV1.20B785,2013-08-09 18:49:00,
2013-08-09 14:54:00,75.6,70.8,30.11,NNW,345,0.0,1.0,85,0.00,,,0.00,WeatherCatV1.20B785,2013-08-09 18:54:00,
2013-08-09 14:59:00,75.3,70.8,30.11,NNW,345,0.0,0.0,86,0.00,,,0.00,WeatherCatV1.20B785,2013-08-09 18:59:00,
2013-08-09 15:04:00,75.2,70.7,30.11,NE,44,0.0,0.0,86,0.00,,,0.00,WeatherCatV1.20B785,2013-08-09 19:04:00,
2013-08-09 15:09:00,74.9,70.8,30.10,NE,49,0.0,0.0,87,0.00,,,0.00,WeatherCatV1.20B785,2013-08-09 19:09:00,
2013-08-09 15:14:00,74.5,70.7,30.10,SSE,157,0.0,0.0,88,0.00,,,0.00,WeatherCatV1.20B785,2013-08-09 19:14:00,
2013-08-09 15:19:00,73.9,70.1,30.10,ENE,74,0.0,1.0,88,0.00,,,0.00,WeatherCatV1.20B785,2013-08-09 19:19:00,
2013-08-09 15:24:00,73.2,69.8,30.11,South,173,0.0,0.0,89,0.00,,,0.00,WeatherCatV1.20B785,2013-08-09 19:24:00,
2013-08-09 15:29:00,72.6,69.5,30.10,South,189,0.0,4.0,90,0.00,,,0.00,WeatherCatV1.20B785,2013-08-09 19:29:00,
2013-08-09 15:34:00,72.2,69.4,30.10,East,99,0.0,1.0,91,0.00,,,0.00,WeatherCatV1.20B785,2013-08-09 19:34:00,
2013-08-09 15:39:00,72.0,69.5,30.09,South,190,0.0,0.0,92,0.00,,,0.01,WeatherCatV1.20B785,2013-08-09 19:39:00,
2013-08-09 15:44:00,71.7,69.6,30.09,SSE,154,0.0,1.0,93,0.09,,,0.02,WeatherCatV1.20B785,2013-08-09 19:44:00,
2013-08-09 15:49:00,71.3,69.5,30.09,SSE,153,0.0,0.0,94,0.09,,,0.02,WeatherCatV1.20B785,2013-08-09 19:49:00,
2013-08-09 15:54:00,71.2,69.4,30.09,SSE,152,0.0,0.0,94,0.05,,,0.02,WeatherCatV1.20B785,2013-08-09 19:54:00,
2013-08-09 15:59:00,71.1,69.6,30.09,SSE,153,0.0,1.0,95,0.04,,,0.02,WeatherCatV1.20B785,2013-08-09 19:59:00,
2013-08-09 16:04:00,71.3,70.1,30.08,SE,128,0.0,0.0,96,0.00,,,0.02,WeatherCatV1.20B785,2013-08-09 20:04:00,
2013-08-09 16:09:00,71.6,70.4,30.09,NW,326,0.0,3.0,96,0.00,,,0.02,WeatherCatV1.20B785,2013-08-09 20:09:00,
2013-08-09 16:14:00,72.0,69.9,30.09,West,273,0.0,6.0,93,0.00,,,0.02,WeatherCatV1.20B785,2013-08-09 20:14:00,
2013-08-09 16:19:00,72.5,70.3,30.09,ESE,109,0.0,0.0,93,0.00,,,0.02,WeatherCatV1.20B785,2013-08-09 20:19:00,
2013-08-09 16:24:00,73.0,70.5,30.10,ENE,76,0.0,3.0,92,0.00,,,0.02,WeatherCatV1.20B785,2013-08-09 20:24:00,
2013-08-09 16:29:00,73.0,70.2,30.10,ENE,74,0.0,1.0,91,0.00,,,0.02,WeatherCatV1.20B785,2013-08-09 20:29:00,
2013-08-09 16:34:00,73.0,70.2,30.10,ENE,74,0.0,0.0,91,0.00,,,0.02,WeatherCatV1.20B785,2013-08-09 20:34:00,
2013-08-09 16:39:00,73.0,70.5,30.10,ENE,74,0.0,0.0,92,0.00,,,0.03,WeatherCatV1.20B785,2013-08-09 20:39:00,
2013-08-09 16:44:00,72.8,70.3,30.10,ENE,74,0.0,0.0,92,0.00,,,0.03,WeatherCatV1.20B785,2013-08-09 20:44:00,
2013-08-09 16:49:00,72.4,69.9,30.09,ENE,74,0.0,1.0,92,0.00,,,0.03,WeatherCatV1.20B785,2013-08-09 20:49:00,
2013-08-09 16:54:00,72.2,70.1,30.09,ENE,74,0.0,0.0,93,0.00,,,0.03,WeatherCatV1.20B785,2013-08-09 20:54:00,
2013-08-09 16:59:00,72.2,70.4,30.10,ENE,74,0.0,0.0,94,0.00,,,0.03,WeatherCatV1.20B785,2013-08-09 20:59:00,
2013-08-09 17:04:00,72.1,70.0,30.09,ENE,74,0.0,0.0,93,0.00,,,0.03,WeatherCatV1.20B785,2013-08-09 21:04:00,
2013-08-09 17:09:00,72.1,70.0,30.09,ENE,74,0.0,0.0,93,0.00,,,0.03,WeatherCatV1.20B785,2013-08-09 21:09:00,
2013-08-09 17:14:00,72.1,70.3,30.09,ENE,74,0.0,0.0,94,0.00,,,0.03,WeatherCatV1.20B785,2013-08-09 21:14:00,
2013-08-09 17:19:00,72.3,70.5,30.09,ENE,74,0.0,0.0,94,0.00,,,0.03,WeatherCatV1.20B785,2013-08-09 21:19:00,
2013-08-09 17:24:00,72.7,71.2,30.09,ENE,74,0.0,2.0,95,0.00,,,0.03,WeatherCatV1.20B785,2013-08-09 21:24:00,
2013-08-09 17:29:00,72.7,70.2,30.09,ENE,74,0.0,0.0,92,0.00,,,0.03,WeatherCatV1.20B785,2013-08-09 21:29:00,
2013-08-09 17:34:00,72.8,70.0,30.09,East,80,0.0,0.0,91,0.00,,,0.03,WeatherCatV1.20B785,2013-08-09 21:34:00,
2013-08-09 17:39:00,72.9,70.4,30.09,North,0,0.0,0.0,92,0.00,,,0.03,WeatherCatV1.20B785,2013-08-09 21:39:00,
2013-08-09 17:44:00,72.8,70.7,30.08,North,0,0.0,0.0,93,0.00,,,0.03,WeatherCatV1.20B785,2013-08-09 21:44:00,
2013-08-09 17:49:00,72.5,70.0,30.09,North,0,0.0,0.0,92,0.00,,,0.03,WeatherCatV1.20B785,2013-08-09 21:49:00,
2013-08-09 17:54:00,72.2,70.1,30.09,North,0,0.0,0.0,93,0.00,,,0.03,WeatherCatV1.20B785,2013-08-09 21:54:00,
2013-08-09 17:59:00,72.0,70.2,30.09,North,0,0.0,0.0,94,0.00,,,0.03,WeatherCatV1.20B785,2013-08-09 21:59:00,
2013-08-09 18:04:00,71.8,70.0,30.09,West,273,0.0,1.0,94,0.00,,,0.03,WeatherCatV1.20B785,2013-08-09 22:04:00,
2013-08-09 18:09:00,71.5,69.7,30.09,West,275,0.0,1.0,94,0.00,,,0.03,WeatherCatV1.20B785,2013-08-09 22:09:00,
2013-08-09 18:14:00,71.0,68.9,30.09,West,273,0.0,2.0,93,0.00,,,0.03,WeatherCatV1.20B785,2013-08-09 22:14:00,
2013-08-09 18:19:00,70.5,68.1,30.09,West,272,0.0,1.0,92,0.00,,,0.03,WeatherCatV1.20B785,2013-08-09 22:19:00,
2013-08-09 18:24:00,70.1,68.0,30.09,West,272,0.0,0.0,93,0.00,,,0.03,WeatherCatV1.20B785,2013-08-09 22:24:00,
2013-08-09 18:29:00,69.9,67.8,30.09,West,272,0.0,0.0,93,0.00,,,0.03,WeatherCatV1.20B785,2013-08-09 22:29:00,
2013-08-09 18:34:00,69.7,67.9,30.09,SE,130,0.0,0.0,94,0.00,,,0.03,WeatherCatV1.20B785,2013-08-09 22:34:00,
2013-08-09 18:39:00,69.6,68.1,30.09,SE,131,0.0,1.0,95,0.00,,,0.03,WeatherCatV1.20B785,2013-08-09 22:39:00,
2013-08-09 18:44:00,69.7,68.5,30.08,SSW,200,0.0,2.0,96,0.00,,,0.03,WeatherCatV1.20B785,2013-08-09 22:44:00,
2013-08-09 18:49:00,69.8,68.6,30.09,SE,136,0.0,0.0,96,0.00,,,0.03,WeatherCatV1.20B785,2013-08-09 22:49:00,
2013-08-09 18:54:00,69.9,68.7,30.09,ESE,119,0.0,0.0,96,0.00,,,0.03,WeatherCatV1.20B785,2013-08-09 22:54:00,
2013-08-09 18:59:00,70.1,68.9,30.09,East,96,0.0,1.0,96,0.00,,,0.03,WeatherCatV1.20B785,2013-08-09 22:59:00,
2013-08-09 19:04:00,70.2,68.4,30.09,East,98,0.0,1.0,94,0.00,,,0.03,WeatherCatV1.20B785,2013-08-09 23:04:00,
2013-08-09 19:09:00,70.1,68.0,30.09,SE,129,0.0,1.0,93,0.00,,,0.03,WeatherCatV1.20B785,2013-08-09 23:09:00,
2013-08-09 19:14:00,70.1,68.3,30.09,SE,132,0.0,1.0,94,0.00,,,0.03,WeatherCatV1.20B785,2013-08-09 23:14:00,
2013-08-09 19:19:00,70.0,67.9,30.09,SE,146,0.0,1.0,93,0.00,,,0.03,WeatherCatV1.20B785,2013-08-09 23:19:00,
2013-08-09 19:24:00,69.9,67.8,30.10,ESE,103,0.0,0.0,93,0.00,,,0.03,WeatherCatV1.20B785,2013-08-09 23:24:00,
2013-08-09 19:29:00,69.9,67.8,30.10,East,92,0.0,0.0,93,0.00,,,0.03,WeatherCatV1.20B785,2013-08-09 23:29:00,
2013-08-09 19:34:00,69.8,68.0,30.10,ESE,115,0.0,1.0,94,0.00,,,0.03,WeatherCatV1.20B785,2013-08-09 23:34:00,
2013-08-09 19:39:00,69.8,68.0,30.10,SE,136,0.0,3.0,94,0.00,,,0.03,WeatherCatV1.20B785,2013-08-09 23:39:00,
2013-08-09 19:44:00,69.8,68.0,30.10,East,101,0.0,0.0,94,0.00,,,0.03,WeatherCatV1.20B785,2013-08-09 23:44:00,
2013-08-09 19:49:00,69.7,67.9,30.09,East,101,0.0,2.0,94,0.00,,,0.03,WeatherCatV1.20B785,2013-08-09 23:49:00,
2013-08-09 19:55:00,69.5,68.0,30.10,East,101,0.0,0.0,95,0.00,,,0.03,WeatherCatV1.20B785,2013-08-09 23:55:00,
2013-08-09 20:00:00,69.2,67.4,30.10,East,101,0.0,0.0,94,0.00,,,0.03,WeatherCatV1.20B785,2013-08-10 00:00:00,
2013-08-09 20:05:00,68.9,67.4,30.10,East,101,0.0,0.0,95,0.00,,,0.03,WeatherCatV1.20B785,2013-08-10 00:05:00,
2013-08-09 20:10:00,68.7,67.2,30.10,East,101,0.0,0.0,95,0.00,,,0.03,WeatherCatV1.20B785,2013-08-10 00:10:00,
2013-08-09 20:15:00,68.5,67.3,30.10,East,101,0.0,0.0,96,0.00,,,0.03,WeatherCatV1.20B785,2013-08-10 00:15:00,
2013-08-09 20:20:00,68.2,67.0,30.11,East,101,0.0,1.0,96,0.00,,,0.03,WeatherCatV1.20B785,2013-08-10 00:20:00,
2013-08-09 20:25:00,68.0,66.8,30.10,East,101,0.0,0.0,96,0.00,,,0.03,WeatherCatV1.20B785,2013-08-10 00:25:00,
2013-08-09 20:30:00,67.9,67.0,30.10,East,101,0.0,1.0,97,0.00,,,0.03,WeatherCatV1.20B785,2013-08-10 00:30:00,
2013-08-09 20:35:00,67.9,67.0,30.10,East,101,0.0,0.0,97,0.00,,,0.03,WeatherCatV1.20B785,2013-08-10 00:35:00,
2013-08-09 20:40:00,67.8,66.9,30.11,ESE,102,0.0,0.0,97,0.00,,,0.03,WeatherCatV1.20B785,2013-08-10 00:40:00,
2013-08-09 20:45:00,67.7,66.8,30.11,ESE,102,0.0,0.0,97,0.00,,,0.03,WeatherCatV1.20B785,2013-08-10 00:45:00,
2013-08-09 20:50:00,67.5,66.6,30.11,ESE,102,0.0,1.0,97,0.00,,,0.03,WeatherCatV1.20B785,2013-08-10 00:50:00,
2013-08-09 20:55:00,67.5,66.6,30.11,ESE,104,0.0,4.0,97,0.00,,,0.03,WeatherCatV1.20B785,2013-08-10 00:55:00,
2013-08-09 21:00:00,67.5,66.6,30.12,ESE,104,0.0,1.0,97,0.00,,,0.03,WeatherCatV1.20B785,2013-08-10 01:00:00,
2013-08-09 21:05:00,67.6,67.0,30.12,ESE,104,0.0,0.0,98,0.00,,,0.03,WeatherCatV1.20B785,2013-08-10 01:05:00,
2013-08-09 21:10:00,67.7,67.1,30.13,ESE,103,0.0,0.0,98,0.00,,,0.03,WeatherCatV1.20B785,2013-08-10 01:10:00,
2013-08-09 21:15:00,67.7,67.1,30.13,ESE,103,0.0,0.0,98,0.00,,,0.03,WeatherCatV1.20B785,2013-08-10 01:15:00,
2013-08-09 21:20:00,67.7,67.1,30.13,ESE,104,0.0,0.0,98,0.00,,,0.03,WeatherCatV1.20B785,2013-08-10 01:20:00,
2013-08-09 21:25:00,67.7,66.8,30.13,ESE,104,0.0,3.0,97,0.00,,,0.03,WeatherCatV1.20B785,2013-08-10 01:25:00,
2013-08-09 21:30:00,67.7,66.8,30.13,ESE,103,0.0,1.0,97,0.00,,,0.03,WeatherCatV1.20B785,2013-08-10 01:30:00,
2013-08-09 21:35:00,67.7,67.1,30.14,ESE,103,0.0,0.0,98,0.00,,,0.03,WeatherCatV1.20B785,2013-08-10 01:35:00,
2013-08-09 21:40:00,67.7,67.1,30.14,ESE,104,0.0,0.0,98,0.00,,,0.03,WeatherCatV1.20B785,2013-08-10 01:40:00,
2013-08-09 21:45:00,67.8,67.2,30.15,ESE,103,0.0,0.0,98,0.00,,,0.03,WeatherCatV1.20B785,2013-08-10 01:45:00,
2013-08-09 21:50:00,67.8,67.2,30.15,NNE,33,0.0,3.0,98,0.00,,,0.03,WeatherCatV1.20B785,2013-08-10 01:50:00,
2013-08-09 21:55:00,67.8,67.2,30.15,NE,34,0.0,0.0,98,0.00,,,0.03,WeatherCatV1.20B785,2013-08-10 01:55:00,
2013-08-09 22:00:00,67.7,67.1,30.15,NNE,33,0.0,0.0,98,0.00,,,0.03,WeatherCatV1.20B785,2013-08-10 02:00:00,
2013-08-09 22:05:00,67.7,67.1,30.15,NE,34,0.0,0.0,98,0.00,,,0.03,WeatherCatV1.20B785,2013-08-10 02:05:00,
2013-08-09 22:10:00,67.8,67.2,30.15,NE,34,0.0,0.0,98,0.00,,,0.03,WeatherCatV1.20B785,2013-08-10 02:10:00,
2013-08-09 22:15:00,67.9,67.6,30.15,NNE,33,0.0,0.0,99,0.00,,,0.03,WeatherCatV1.20B785,2013-08-10 02:15:00,
2013-08-09 22:20:00,67.9,67.6,30.15,NNE,33,0.0,0.0,99,0.00,,,0.03,WeatherCatV1.20B785,2013-08-10 02:20:00,
2013-08-09 22:25:00,67.9,67.6,30.15,East,90,0.0,4.0,99,0.00,,,0.03,WeatherCatV1.20B785,2013-08-10 02:25:00,
2013-08-09 22:30:00,68.0,67.7,30.15,ESE,119,0.0,1.0,99,0.00,,,0.03,WeatherCatV1.20B785,2013-08-10 02:30:00,
2013-08-09 22:35:00,68.1,67.8,30.16,SSE,148,0.0,4.0,99,0.00,,,0.03,WeatherCatV1.20B785,2013-08-10 02:35:00,
2013-08-09 22:40:00,68.2,67.9,30.15,SSE,148,0.0,0.0,99,0.00,,,0.03,WeatherCatV1.20B785,2013-08-10 02:40:00,
2013-08-09 22:45:00,68.2,67.9,30.15,WNW,290,0.0,0.0,99,0.00,,,0.03,WeatherCatV1.20B785,2013-08-10 02:45:00,
2013-08-09 22:50:00,68.2,67.9,30.15,East,94,0.0,0.0,99,0.00,,,0.03,WeatherCatV1.20B785,2013-08-10 02:50:00,
2013-08-09 22:55:00,68.2,67.9,30.15,NNE,14,0.0,0.0,99,0.00,,,0.03,WeatherCatV1.20B785,2013-08-10 02:55:00,
2013-08-09 23:00:00,68.1,67.8,30.14,NE,45,0.0,0.0,99,0.00,,,0.03,WeatherCatV1.20B785,2013-08-10 03:00:00,
2013-08-09 23:05:00,68.1,67.8,30.14,ENE,63,0.0,0.0,99,0.00,,,0.03,WeatherCatV1.20B785,2013-08-10 03:05:00,
2013-08-09 23:10:00,68.0,67.7,30.14,West,276,0.0,2.0,99,0.00,,,0.03,WeatherCatV1.20B785,2013-08-10 03:10:00,
2013-08-09 23:15:00,68.0,67.7,30.14,West,276,0.0,0.0,99,0.00,,,0.03,WeatherCatV1.20B785,2013-08-10 03:15:00,
2013-08-09 23:20:00,68.0,67.7,30.14,West,277,0.0,1.0,99,0.00,,,0.03,WeatherCatV1.20B785,2013-08-10 03:20:00,
2013-08-09 23:25:00,67.9,67.6,30.14,West,277,0.0,0.0,99,0.00,,,0.03,WeatherCatV1.20B785,2013-08-10 03:25:00,
2013-08-09 23:30:00,67.9,67.6,30.14,West,276,0.0,1.0,99,0.00,,,0.03,WeatherCatV1.20B785,2013-08-10 03:30:00,
2013-08-09 23:35:00,67.8,67.5,30.15,West,277,1.0,2.0,99,0.00,,,0.03,WeatherCatV1.20B785,2013-08-10 03:35:00,
2013-08-09 23:40:00,67.8,67.5,30.15,West,273,1.0,4.0,99,0.00,,,0.03,WeatherCatV1.20B785,2013-08-10 03:40:00,
2013-08-09 23:45:00,67.7,67.4,30.15,South,191,0.0,1.0,99,0.00,,,0.03,WeatherCatV1.20B785,2013-08-10 03:45:00,
2013-08-09 23:48:00,67.8,67.5,30.15,SSW,192,0.0,1.0,99,0.00,,,0.03,WeatherCatV1.20B785,2013-08-10 03:48:00,
2013-08-09 23:53:00,67.8,67.2,30.15,South,191,0.0,1.0,98,0.00,,,0.03,WeatherCatV1.20B785,2013-08-10 03:53:00,
2013-08-09 23:58:00,67.9,67.3,30.15,SSW,192,0.0,0.0,98,0.00,,,0.03,WeatherCatV1.20B785,2013-08-10 03:58:00,